Stündliche Wetter Otrada

Heute, 10 April, Samstag

Zeit Temperatur Niederschläge Wind Luftdruck Luftfeuchtigkeit
00:00 0°C° 0.2 mm 3 m/S 764 mmHg 98%
01:00 0°C° 0.1 mm 3 m/S 764 mmHg 98%
02:00 -1°C° 0.1 mm 4 m/S 764 mmHg 98%
03:00 -1°C° 0 mm 4 m/S 764 mmHg 99%
04:00 -1°C° 0 mm 4 m/S 764 mmHg 99%
05:00 -1°C° 0 mm 4 m/S 764 mmHg 99%
06:00 -1°C° 0 mm 4 m/S 764 mmHg 99%
07:00 0°C° 0.2 mm 4 m/S 764 mmHg 99%
08:00 0°C° 0.2 mm 4 m/S 764 mmHg 99%
09:00 0°C° 0 mm 4 m/S 764 mmHg 99%
10:00 0°C° 0.1 mm 4 m/S 764 mmHg 99%
11:00 +1°C° 0.1 mm 4 m/S 764 mmHg 99%
12:00 +1°C° 0.1 mm 4 m/S 763 mmHg 99%
13:00 +1°C° 0 mm 4 m/S 763 mmHg 99%
14:00 +1°C° 0 mm 4 m/S 763 mmHg 99%
15:00 +3°C° 0 mm 4 m/S 763 mmHg 99%
16:00 +1°C° 0 mm 4 m/S 762 mmHg 99%
17:00 +1°C° 0 mm 4 m/S 762 mmHg 99%
18:00 +1°C° 0 mm 4 m/S 762 mmHg 99%
19:00 +1°C° 0.1 mm 4 m/S 762 mmHg 99%
20:00 +2°C° 0.1 mm 3 m/S 762 mmHg 99%
21:00 +3°C° 0.1 mm 3 m/S 762 mmHg 99%
22:00 +3°C° 0.1 mm 3 m/S 761 mmHg 99%
23:00 +3°C° 0.1 mm 3 m/S 761 mmHg 99%

Morgen, 11 April, Sonntag

Zeit Temperatur Niederschläge Wind Luftdruck Luftfeuchtigkeit
00:00 +3°C° 0.1 mm 3 m/S 761 mmHg 99%
01:00 +3°C° 0.1 mm 3 m/S 761 mmHg 99%
02:00 +3°C° 0.1 mm 3 m/S 761 mmHg 99%
03:00 +4°C° 0.1 mm 2 m/S 762 mmHg 99%
04:00 +4°C° 0 mm 2 m/S 762 mmHg 98%
05:00 +4°C° 0 mm 2 m/S 762 mmHg 98%
06:00 +4°C° 0 mm 2 m/S 762 mmHg 98%
07:00 +5°C° 0 mm 2 m/S 763 mmHg 97%
08:00 +5°C° 0 mm 2 m/S 763 mmHg 97%
09:00 +6°C° 0 mm 2 m/S 764 mmHg 96%
10:00 +6°C° 0 mm 2 m/S 764 mmHg 94%
11:00 +7°C° 0 mm 2 m/S 765 mmHg 91%
12:00 +8°C° 0 mm 3 m/S 765 mmHg 89%
13:00 +7°C° 0.2 mm 3 m/S 766 mmHg 90%
14:00 +7°C° 0.2 mm 3 m/S 766 mmHg 91%
15:00 +5°C° 0.2 mm 3 m/S 766 mmHg 92%
16:00 +5°C° 0.2 mm 3 m/S 767 mmHg 94%
17:00 +5°C° 0.2 mm 3 m/S 767 mmHg 95%
18:00 +4°C° 0.2 mm 3 m/S 767 mmHg 96%
19:00 +4°C° 0 mm 3 m/S 767 mmHg 96%
20:00 +4°C° 0 mm 3 m/S 767 mmHg 97%
21:00 +4°C° 0 mm 3 m/S 768 mmHg 97%
22:00 +4°C° 0 mm 3 m/S 768 mmHg 97%
23:00 +4°C° 0 mm 3 m/S 768 mmHg 97%

übermorgen, 12 April, Montag

Zeit Temperatur Niederschläge Wind Luftdruck Luftfeuchtigkeit
00:00 +4°C° 0 mm 3 m/S 768 mmHg 97%
01:00 +4°C° 0.2 mm 3 m/S 768 mmHg 97%
02:00 +4°C° 0.2 mm 3 m/S 768 mmHg 96%
03:00 +4°C° 0.2 mm 3 m/S 768 mmHg 96%
04:00 +4°C° 0.2 mm 3 m/S 769 mmHg 96%
05:00 +5°C° 0.2 mm 3 m/S 769 mmHg 96%
06:00 +5°C° 0.2 mm 3 m/S 769 mmHg 96%
07:00 +7°C° 0 mm 3 m/S 769 mmHg 92%
08:00 +9°C° 0 mm 3 m/S 769 mmHg 88%
09:00 +10°C° 0 mm 3 m/S 769 mmHg 83%
10:00 +12°C° 0 mm 3 m/S 769 mmHg 77%
11:00 +14°C° 0 mm 3 m/S 769 mmHg 71%
12:00 +16°C° 0 mm 3 m/S 769 mmHg 65%
13:00 +17°C° 0 mm 3 m/S 769 mmHg 62%
14:00 +17°C° 0 mm 3 m/S 769 mmHg 60%
15:00 +18°C° 0 mm 3 m/S 768 mmHg 57%
16:00 +17°C° 0 mm 3 m/S 768 mmHg 63%
17:00 +14°C° 0 mm 3 m/S 768 mmHg 70%
18:00 +13°C° 0 mm 3 m/S 768 mmHg 76%
19:00 +12°C° 0 mm 3 m/S 768 mmHg 79%
20:00 +11°C° 0 mm 3 m/S 768 mmHg 83%
21:00 +12°C° 0 mm 2 m/S 768 mmHg 86%
22:00 +10°C° 0 mm 2 m/S 768 mmHg 86%
23:00 +10°C° 0 mm 2 m/S 768 mmHg 85%

13 April, Dienstag

Zeit Temperatur Niederschläge Wind Luftdruck Luftfeuchtigkeit
00:00 +10°C° 0 mm 2 m/S 768 mmHg 85%
01:00 +9°C° 0 mm 2 m/S 768 mmHg 85%
02:00 +9°C° 0 mm 2 m/S 768 mmHg 85%
03:00 +10°C° 0 mm 1 m/S 768 mmHg 85%
04:00 +9°C° 0 mm 2 m/S 768 mmHg 85%
05:00 +9°C° 0 mm 2 m/S 768 mmHg 85%
06:00 +8°C° 0 mm 2 m/S 768 mmHg 85%
07:00 +10°C° 0 mm 2 m/S 768 mmHg 76%
08:00 +13°C° 0 mm 2 m/S 768 mmHg 68%
09:00 +14°C° 0 mm 3 m/S 768 mmHg 59%
10:00 +16°C° 0 mm 3 m/S 768 mmHg 52%
11:00 +17°C° 0 mm 3 m/S 768 mmHg 45%
12:00 +18°C° 0 mm 4 m/S 767 mmHg 38%
13:00 +18°C° 0 mm 4 m/S 767 mmHg 37%
14:00 +18°C° 0 mm 4 m/S 767 mmHg 36%
15:00 +18°C° 0 mm 4 m/S 767 mmHg 35%
16:00 +17°C° 0 mm 3 m/S 766 mmHg 41%
17:00 +16°C° 0 mm 3 m/S 766 mmHg 46%
18:00 +15°C° 0 mm 2 m/S 766 mmHg 52%
19:00 +14°C° 0 mm 2 m/S 766 mmHg 55%
20:00 +12°C° 0 mm 2 m/S 766 mmHg 58%
21:00 +10°C° 0 mm 2 m/S 766 mmHg 61%
22:00 +10°C° 0 mm 2 m/S 766 mmHg 62%
23:00 +9°C° 0 mm 2 m/S 766 mmHg 64%

14 April, Mittwoch

Zeit Temperatur Niederschläge Wind Luftdruck Luftfeuchtigkeit
00:00 +9°C° 0 mm 2 m/S 766 mmHg 66%
01:00 +8°C° 0 mm 2 m/S 766 mmHg 69%
02:00 +8°C° 0 mm 2 m/S 766 mmHg 71%
03:00 +8°C° 0 mm 2 m/S 765 mmHg 74%
04:00 +8°C° 0 mm 2 m/S 765 mmHg 74%
05:00 +8°C° 0 mm 2 m/S 765 mmHg 75%
06:00 +8°C° 0 mm 2 m/S 765 mmHg 76%
07:00 +10°C° 0 mm 2 m/S 765 mmHg 70%
08:00 +13°C° 0 mm 2 m/S 765 mmHg 63%
09:00 +15°C° 0 mm 2 m/S 765 mmHg 57%
10:00 +16°C° 0 mm 2 m/S 765 mmHg 52%
11:00 +17°C° 0 mm 2 m/S 764 mmHg 47%
12:00 +18°C° 0 mm 2 m/S 764 mmHg 43%
13:00 +19°C° 0 mm 2 m/S 764 mmHg 41%
14:00 +19°C° 0 mm 2 m/S 764 mmHg 38%
15:00 +19°C° 0 mm 2 m/S 763 mmHg 36%
16:00 +18°C° 0 mm 2 m/S 763 mmHg 41%
17:00 +17°C° 0 mm 2 m/S 763 mmHg 45%
18:00 +16°C° 0 mm 1 m/S 762 mmHg 50%
19:00 +15°C° 0 mm 1 m/S 762 mmHg 53%
20:00 +13°C° 0 mm 2 m/S 762 mmHg 55%
21:00 +12°C° 0 mm 2 m/S 762 mmHg 58%
22:00 +12°C° 0 mm 2 m/S 762 mmHg 60%
23:00 +10°C° 0 mm 2 m/S 762 mmHg 61%

15 April, Donnerstag

Zeit Temperatur Niederschläge Wind Luftdruck Luftfeuchtigkeit
00:00 +9°C° 0 mm 2 m/S 762 mmHg 63%
01:00 +9°C° 0 mm 2 m/S 762 mmHg 64%
02:00 +9°C° 0 mm 2 m/S 761 mmHg 65%
03:00 +8°C° 0 mm 2 m/S 761 mmHg 66%
04:00 +8°C° 0 mm 2 m/S 761 mmHg 66%
05:00 +8°C° 0 mm 2 m/S 761 mmHg 66%
06:00 +8°C° 0 mm 2 m/S 761 mmHg 66%
07:00 +10°C° 0 mm 2 m/S 761 mmHg 60%
08:00 +13°C° 0 mm 2 m/S 760 mmHg 54%
09:00 +15°C° 0 mm 2 m/S 760 mmHg 48%
10:00 +16°C° 0 mm 3 m/S 760 mmHg 43%
11:00 +17°C° 0 mm 3 m/S 759 mmHg 39%
12:00 +19°C° 0 mm 3 m/S 759 mmHg 35%
13:00 +19°C° 0 mm 3 m/S 758 mmHg 34%
14:00 +19°C° 0 mm 3 m/S 758 mmHg 34%
15:00 +20°C° 0 mm 3 m/S 757 mmHg 33%
16:00 +18°C° 0 mm 3 m/S 757 mmHg 39%
17:00 +17°C° 0 mm 2 m/S 756 mmHg 44%
18:00 +16°C° 0 mm 2 m/S 756 mmHg 50%
19:00 +15°C° 0 mm 2 m/S 756 mmHg 54%
20:00 +14°C° 0 mm 2 m/S 755 mmHg 57%
21:00 +13°C° 0 mm 2 m/S 755 mmHg 61%
22:00 +11°C° 0 mm 3 m/S 754 mmHg 64%
23:00 +11°C° 0 mm 3 m/S 754 mmHg 67%
Mehr zeigen

Wir brauchen deine Erlaubnis

Meteoprog und unser Service Anbieter werden persönliche Daten aufbewahren, so wie Cookies, Geräte Bezeichnung oder ähnliche Technologien von deinem Gerät und Prozess, so wie Persönliche Daten Inhalte und Werbungen, genauso wie social Media und den Verkehr zu analysieren.

  • Aufbewahrung und/oder Zugang zu deiner Geräte Informationen.

    Cookies, Geräte Bezeichnung oder andere Informationen, können aufbewahrt oder Zugang zu deinem Gerät erhalten, für den Grund, der oben angegeben wird.

  • Personalisierte Werbung und Inhalte, Messungen, Einblick in das Publikum und Produkt Entwicklung.

    Werbungen und Inhalte können personalisiert werden, basierend auf ein Profil. Mehr Daten können besser personalisierte Werbungen und Inhalte hinzufügen. Werbung und Inhalte können gezeigt und gemessen werden. Einblicke über das Publikum, welche die Werbung gesehen haben und den Inhalt, können abgeleitet werden. So wie Daten können genutzt werden, um es zu verbessern oder die Benutzer Erfahrung zu verbessern das System und die Software.

Wenn du “Ich stimme zu” klickst, erlaubst du uns, die Cookies zu benutzen die Geräte Bezeichnung, den Web oder ähnliche Technologien zu benutzen. Deine Settings, können in deinem Gerät bei deinem Browser geändert werden.

Für den bestimmten Zweck, berechtigten Interessen beruhen darauf, mehr als auf den Inhalt. Du kannst mehr darüber in unseren Privaten und Cookie Politik lesen.